星链-34967 (STARLINK-34967)

导读 | 豆包AI

STARLINK-34967是美国(US)于2025年8月14日发射的星链卫星,隶属于SpaceX星链星座项目。星链计划旨在构建全球卫星互联网星座,为全球偏远地区、海洋等传统网络覆盖盲区提供高速互联网接入服务。该卫星发射进一步扩充了星链星座的规模,助力项目实现全球无缝网络覆盖的建设目标。

Basic Information
目录编号:
65177
目录名称:
STARLINK-34967
国际标识:
2025-175D
轨道中心:
EARTH
卫星名称:
星链-34967
卫星全名:
星链-34967 (STARLINK-34967)
卫星状态:
在轨 (已飞行212 天)
发射日期:
2025-08-14 UTC
国别 :
美国 (US)
星等 :
--
Orbit Information
数据来源 国际轨道数据 AOE轨道数据
星历时间 2026-03-13T22:09:27+0800
1天前
查看轨道信息
2026-03-13T09:00:00+0800
1天前
查看轨道信息
半长轴 6927.62km 6927.652km
偏心率 0.0002167 0.0001757
轨道倾角 97.605° 97.605°
近地点辐角 89.321° 81.999°
升交点赤经 306.443° 305.904°
平近点角 270.826° 188.396°
近地点 547.981km 548.297km
远地点 550.985km 550.733km
周期 95.639分钟 95.640分钟
每日圈数 15.056595 15.056488
Detailed Information
固有亮度:
5
最大亮度:
2.5
卫星平台:
Starlink V1.0
覆盖范围:
全球
运营商:
太空探索技术公司
运营商所在国:
美国
制造商(研发单位):
太空探索技术公司
制造商所在国:
美国
使用方式:
暂无
Satellite Introduction
Starlink 计划是 SpaceX 推出的全球卫星互联网项目,通过发射低轨道卫星,为全球尤其是偏远地区提供高速、低延迟的互联网服务。自 2019 年起,Starlink 已部署数千颗卫星,旨在缩小全球数字鸿沟,推动互联网普及。该项目还为军事、航空等行业提供通信支持,带来广泛经济效益。
2D Orbit Map
3D Orbit Map
Orbit Altitude Analysis Chart
Orbit Inclination Analysis Chart
Orbit Comprehensive Analysis Chart
View Comprehensive Chart